DLH1CH EDDF-LSGG

Flight info

Callsign DLH1CH
Flight time 0h 48m
Altitude 29000
Route ANEKI2L/18 ANEKI Y163 PABLA/N0404F310 Y163 HERBI Y164 MOPAN DCT LUTIX DCT BENOT
Aircraft A20N/M-SDE2E3FGHIRWXY/LB1

Departure

Time 2026-05-05 18:26
Airport Frankfurt Main Airport (EDDF)

Arrival

Time 2026-05-05 19:14
Airport Geneva International Airport (LSGG)
Time Latitude Longitude Altitude Speed Heading
2026-05-05 17:41 50.04786 8.56771 362 ft 0 kts 115°
2026-05-05 18:05 50.04789 8.56758 365 ft 2 kts 115°
2026-05-05 18:05 50.04793 8.56745 365 ft 1 kts 115°
2026-05-05 18:05 50.04797 8.56734 364 ft 1 kts 126°
2026-05-05 18:06 50.04802 8.56723 363 ft 1 kts 135°
2026-05-05 18:06 50.04803 8.56720 360 ft 2 kts 143°
2026-05-05 18:06 50.04808 8.56715 359 ft 0 kts 161°
2026-05-05 18:06 50.04809 8.56714 359 ft 0 kts 158°
2026-05-05 18:07 50.04806 8.56714 359 ft 1 kts 174°
2026-05-05 18:07 50.04800 8.56710 364 ft 0 kts 206°
2026-05-05 18:11 50.04799 8.56710 356 ft 1 kts 206°
2026-05-05 18:11 50.04784 8.56692 362 ft 5 kts 221°
2026-05-05 18:11 50.04750 8.56643 358 ft 8 kts 224°
2026-05-05 18:11 50.04741 8.56629 365 ft 3 kts 224°
2026-05-05 18:12 50.04721 8.56587 362 ft 7 kts 234°
2026-05-05 18:12 50.04676 8.56530 356 ft 10 kts 207°
2026-05-05 18:12 50.04605 8.56477 359 ft 13 kts 203°
2026-05-05 18:12 50.04521 8.56397 360 ft 15 kts 234°
2026-05-05 18:13 50.04481 8.56238 362 ft 17 kts 250°
2026-05-05 18:13 50.04451 8.56112 363 ft 11 kts 250°
2026-05-05 18:13 50.04421 8.56034 356 ft 8 kts 211°
2026-05-05 18:13 50.04365 8.56042 363 ft 10 kts 160°
2026-05-05 18:14 50.04295 8.56072 354 ft 11 kts 194°
2026-05-05 18:14 50.04248 8.55971 360 ft 13 kts 250°
2026-05-05 18:14 50.04212 8.55825 354 ft 16 kts 249°
2026-05-05 18:14 50.04168 8.55645 353 ft 19 kts 250°
2026-05-05 18:15 50.04118 8.55439 356 ft 22 kts 250°
2026-05-05 18:15 50.04065 8.55214 359 ft 23 kts 249°
2026-05-05 18:15 50.04006 8.54981 359 ft 24 kts 248°
2026-05-05 18:15 50.03950 8.54721 355 ft 26 kts 249°
2026-05-05 18:16 50.03931 8.54646 354 ft 3 kts 248°
2026-05-05 18:16 50.03918 8.54595 351 ft 7 kts 247°
2026-05-05 18:16 50.03894 8.54496 355 ft 12 kts 250°
2026-05-05 18:16 50.03854 8.54357 349 ft 16 kts 236°
2026-05-05 18:17 50.03794 8.54199 345 ft 18 kts 249°
2026-05-05 18:17 50.03747 8.53999 350 ft 21 kts 249°
2026-05-05 18:17 50.03692 8.53774 347 ft 23 kts 250°
2026-05-05 18:17 50.03631 8.53525 338 ft 26 kts 249°
2026-05-05 18:18 50.03566 8.53257 336 ft 27 kts 250°
2026-05-05 18:18 50.03501 8.52987 334 ft 17 kts 249°
2026-05-05 18:18 50.03479 8.52900 336 ft 0 kts 247°
2026-05-05 18:20 50.03478 8.52893 337 ft 3 kts 247°
2026-05-05 18:21 50.03469 8.52861 332 ft 3 kts 247°
2026-05-05 18:21 50.03452 8.52805 334 ft 8 kts 246°
2026-05-05 18:21 50.03449 8.52792 335 ft 0 kts 246°
2026-05-05 18:21 50.03449 8.52791 335 ft 0 kts 246°
2026-05-05 18:22 50.03448 8.52789 331 ft 1 kts 247°
2026-05-05 18:22 50.03438 8.52748 333 ft 6 kts 249°
2026-05-05 18:23 50.03430 8.52716 331 ft 0 kts 249°
2026-05-05 18:23 50.03430 8.52715 332 ft 1 kts 250°
2026-05-05 18:24 50.03422 8.52681 333 ft 5 kts 250°
2026-05-05 18:24 50.03398 8.52612 332 ft 8 kts 218°
2026-05-05 18:24 50.03365 8.52594 332 ft 1 kts 181°
2026-05-05 18:24 50.03350 8.52595 335 ft 0 kts 179°
2026-05-05 18:25 50.03339 8.52595 334 ft 5 kts 179°
2026-05-05 18:25 50.03213 8.52598 335 ft 53 kts 180°
2026-05-05 18:25 50.02304 8.52603 332 ft 136 kts 179°
2026-05-05 18:25 50.01259 8.52601 682 ft 150 kts 182°
2026-05-05 18:26 50.00155 8.52578 1146 ft 165 kts 182°
2026-05-05 18:26 49.99023 8.52616 1939 ft 157 kts 178°
2026-05-05 18:26 49.97927 8.52744 2487 ft 168 kts 178°
2026-05-05 18:26 49.96705 8.52882 2869 ft 185 kts 178°
2026-05-05 18:27 49.95349 8.53006 3278 ft 205 kts 179°
2026-05-05 18:27 49.94288 8.53089 3617 ft 218 kts 179°
2026-05-05 18:27 49.92718 8.53200 4339 ft 229 kts 179°
2026-05-05 18:27 49.91135 8.53308 5450 ft 227 kts 180°
2026-05-05 18:28 49.87910 8.53521 7403 ft 236 kts 180°
2026-05-05 18:28 49.86266 8.53628 8377 ft 239 kts 180°
2026-05-05 18:28 49.84590 8.53738 9360 ft 242 kts 180°
2026-05-05 18:29 49.82873 8.53849 10279 ft 246 kts 180°
2026-05-05 18:29 49.81198 8.53959 11116 ft 250 kts 180°
2026-05-05 18:29 49.79453 8.54073 11982 ft 253 kts 180°
2026-05-05 18:29 49.77698 8.54114 12828 ft 256 kts 186°
2026-05-05 18:30 49.75871 8.53863 13462 ft 269 kts 188°
2026-05-05 18:30 49.73952 8.53592 13797 ft 293 kts 187°
2026-05-05 18:30 49.71884 8.52937 14114 ft 315 kts 198°
2026-05-05 18:30 49.69708 8.51931 14406 ft 338 kts 198°
2026-05-05 18:31 49.67410 8.50859 15011 ft 348 kts 198°
2026-05-05 18:31 49.65093 8.49767 15863 ft 351 kts 198°
2026-05-05 18:31 49.62879 8.48717 16646 ft 355 kts 198°
2026-05-05 18:31 49.60486 8.47577 17452 ft 360 kts 198°
2026-05-05 18:32 49.58085 8.46432 18250 ft 364 kts 198°
2026-05-05 18:32 49.55652 8.45273 18931 ft 368 kts 198°
2026-05-05 18:32 49.53191 8.44102 19629 ft 372 kts 197°
2026-05-05 18:32 49.50710 8.42923 20316 ft 376 kts 197°
2026-05-05 18:33 49.48191 8.41727 20984 ft 380 kts 197°
2026-05-05 18:33 49.45679 8.40537 21634 ft 385 kts 197°
2026-05-05 18:33 49.43070 8.39302 22322 ft 389 kts 197°
2026-05-05 18:33 49.40514 8.38094 22965 ft 393 kts 197°
2026-05-05 18:34 49.37884 8.36852 23544 ft 398 kts 197°
2026-05-05 18:34 49.35237 8.35604 23765 ft 399 kts 197°
2026-05-05 18:34 49.32580 8.34353 23826 ft 399 kts 197°
2026-05-05 18:34 49.29923 8.33104 23827 ft 399 kts 197°
2026-05-05 18:35 49.27285 8.31864 23826 ft 399 kts 197°
2026-05-05 18:35 49.24638 8.30622 23823 ft 399 kts 197°
2026-05-05 18:35 49.21980 8.29375 23821 ft 399 kts 197°
2026-05-05 18:35 49.19323 8.28131 23819 ft 398 kts 197°
2026-05-05 18:36 49.16670 8.26889 23822 ft 399 kts 197°
2026-05-05 18:36 49.14021 8.25651 23822 ft 398 kts 197°
2026-05-05 18:36 49.11414 8.24434 23820 ft 398 kts 197°
2026-05-05 18:36 49.08795 8.23213 23824 ft 398 kts 197°
2026-05-05 18:37 49.06150 8.21981 23826 ft 398 kts 197°
2026-05-05 18:37 49.03503 8.20749 23820 ft 398 kts 197°
2026-05-05 18:37 49.00858 8.19520 23826 ft 398 kts 197°
2026-05-05 18:37 48.98211 8.18291 23829 ft 398 kts 197°
2026-05-05 18:38 48.95562 8.17063 23829 ft 398 kts 197°
2026-05-05 18:38 48.92935 8.15847 23829 ft 397 kts 197°
2026-05-05 18:38 48.90267 8.14612 23826 ft 397 kts 197°
2026-05-05 18:38 48.87625 8.13392 23829 ft 397 kts 196°
2026-05-05 18:39 48.85013 8.12186 23865 ft 399 kts 196°
2026-05-05 18:39 48.82348 8.10958 24355 ft 401 kts 196°
2026-05-05 18:39 48.79677 8.09727 25011 ft 402 kts 196°
2026-05-05 18:39 48.76991 8.08491 25535 ft 405 kts 196°
2026-05-05 18:40 48.74280 8.07245 26069 ft 408 kts 196°
2026-05-05 18:40 48.71549 8.05992 26594 ft 411 kts 196°
2026-05-05 18:40 48.68807 8.04734 27124 ft 414 kts 196°
2026-05-05 18:40 48.66044 8.03470 27605 ft 417 kts 196°
2026-05-05 18:41 48.63259 8.02196 28085 ft 419 kts 196°
2026-05-05 18:41 48.60546 8.00956 28539 ft 422 kts 196°
2026-05-05 18:41 48.57646 7.99632 28995 ft 425 kts 196°
2026-05-05 18:41 48.54804 7.98337 29432 ft 427 kts 196°
2026-05-05 18:42 48.51956 7.97040 29859 ft 430 kts 196°
2026-05-05 18:42 48.49119 7.95750 30233 ft 432 kts 196°
2026-05-05 18:42 48.46233 7.94440 30623 ft 434 kts 196°
2026-05-05 18:42 48.43334 7.93125 30797 ft 435 kts 196°
2026-05-05 18:43 48.37552 7.90507 30828 ft 434 kts 196°
2026-05-05 18:43 48.31781 7.87900 30830 ft 433 kts 196°
2026-05-05 18:44 48.26007 7.85298 30829 ft 433 kts 196°
2026-05-05 18:44 48.20308 7.82735 30835 ft 432 kts 196°
2026-05-05 18:45 48.14553 7.80154 30837 ft 432 kts 197°
2026-05-05 18:45 48.08840 7.77597 30845 ft 431 kts 197°
2026-05-05 18:46 48.03094 7.75031 30845 ft 430 kts 197°
2026-05-05 18:46 47.97360 7.72478 30854 ft 429 kts 197°
2026-05-05 18:47 47.91643 7.69937 30862 ft 428 kts 197°
2026-05-05 18:47 47.85973 7.67424 30869 ft 427 kts 197°
2026-05-05 18:48 47.80547 7.65022 30868 ft 427 kts 197°
2026-05-05 18:48 47.74860 7.62511 30859 ft 426 kts 197°
2026-05-05 18:49 47.69190 7.60013 30855 ft 426 kts 198°
2026-05-05 18:49 47.63518 7.57519 30851 ft 425 kts 198°
2026-05-05 18:50 47.57892 7.55051 30848 ft 424 kts 198°
2026-05-05 18:50 47.52228 7.52573 30848 ft 424 kts 198°
2026-05-05 18:51 47.46571 7.50103 30856 ft 424 kts 198°
2026-05-05 18:51 47.40926 7.47644 30863 ft 423 kts 198°
2026-05-05 18:52 47.35273 7.45187 30879 ft 423 kts 198°
2026-05-05 18:52 47.29669 7.42755 30886 ft 423 kts 198°
2026-05-05 18:53 47.24036 7.40318 30877 ft 423 kts 198°
2026-05-05 18:53 47.18470 7.37558 30805 ft 419 kts 207°
2026-05-05 18:54 47.15999 7.35303 30243 ft 419 kts 218°
2026-05-05 18:54 47.13872 7.32354 29130 ft 425 kts 228°
2026-05-05 18:54 47.12027 7.28935 28000 ft 429 kts 231°
2026-05-05 18:54 47.10189 7.25482 27192 ft 425 kts 231°
2026-05-05 18:55 47.08398 7.22144 26448 ft 420 kts 230°
2026-05-05 18:55 47.06588 7.18794 25678 ft 416 kts 230°
2026-05-05 18:55 47.04799 7.15503 24933 ft 412 kts 230°
2026-05-05 18:55 47.03013 7.12227 24225 ft 408 kts 230°
2026-05-05 18:56 47.01259 7.09015 23492 ft 405 kts 230°
2026-05-05 18:56 46.99497 7.05793 22731 ft 399 kts 230°
2026-05-05 18:56 46.97810 7.02710 22371 ft 377 kts 230°
2026-05-05 18:56 46.96194 6.99760 21578 ft 367 kts 230°
2026-05-05 18:57 46.94608 6.96869 20643 ft 362 kts 230°
2026-05-05 18:57 46.93065 6.94075 19772 ft 358 kts 229°
2026-05-05 18:57 46.91287 6.91539 18897 ft 353 kts 218°
2026-05-05 18:57 46.89254 6.89567 18036 ft 349 kts 208°
2026-05-05 18:58 46.87047 6.88142 17101 ft 346 kts 203°
2026-05-05 18:58 46.84837 6.86837 16234 ft 341 kts 204°
2026-05-05 18:58 46.82656 6.85530 15383 ft 337 kts 204°
2026-05-05 18:58 46.80498 6.84232 14547 ft 333 kts 204°
2026-05-05 18:59 46.78372 6.82951 13745 ft 329 kts 204°
2026-05-05 18:59 46.76297 6.81705 13351 ft 313 kts 204°
2026-05-05 18:59 46.74348 6.80538 13145 ft 291 kts 204°
2026-05-05 18:59 46.72543 6.79458 12974 ft 272 kts 204°
2026-05-05 19:00 46.71409 6.78779 12868 ft 260 kts 204°
2026-05-05 19:00 46.69889 6.77869 12731 ft 243 kts 204°
2026-05-05 19:00 46.67877 6.76664 12159 ft 236 kts 204°
2026-05-05 19:00 46.66373 6.75671 11536 ft 238 kts 212°
2026-05-05 19:01 46.65125 6.74356 11053 ft 235 kts 223°
2026-05-05 19:01 46.64024 6.72625 10596 ft 232 kts 229°
2026-05-05 19:01 46.63319 6.71447 10276 ft 230 kts 228°
2026-05-05 19:01 46.62266 6.69720 9873 ft 227 kts 227°
2026-05-05 19:02 46.61230 6.68035 9704 ft 219 kts 227°
2026-05-05 19:02 46.60222 6.66401 9408 ft 217 kts 227°
2026-05-05 19:02 46.59207 6.64759 8946 ft 222 kts 227°
2026-05-05 19:02 46.57823 6.62517 8382 ft 226 kts 227°
2026-05-05 19:03 46.57117 6.61373 8159 ft 225 kts 227°
2026-05-05 19:03 46.56076 6.59684 7924 ft 221 kts 227°
2026-05-05 19:03 46.55046 6.58015 7889 ft 226 kts 227°
2026-05-05 19:03 46.54014 6.56345 7886 ft 224 kts 227°
2026-05-05 19:04 46.53032 6.54601 7889 ft 225 kts 232°
2026-05-05 19:04 46.51761 6.52318 7890 ft 224 kts 228°
2026-05-05 19:04 46.51046 6.51183 7887 ft 217 kts 226°
2026-05-05 19:04 46.50106 6.49762 7888 ft 203 kts 225°
2026-05-05 19:05 46.49231 6.48460 7898 ft 199 kts 225°
2026-05-05 19:05 46.48324 6.47102 7889 ft 198 kts 230°
2026-05-05 19:05 46.47524 6.45941 7900 ft 202 kts 225°
2026-05-05 19:05 46.46545 6.44477 7854 ft 201 kts 225°
2026-05-05 19:06 46.45579 6.43039 7654 ft 199 kts 225°
2026-05-05 19:06 46.44619 6.41617 7378 ft 199 kts 225°
2026-05-05 19:06 46.43670 6.40211 7255 ft 189 kts 225°
2026-05-05 19:06 46.42779 6.38891 7149 ft 179 kts 225°
2026-05-05 19:07 46.41914 6.37610 6865 ft 178 kts 225°
2026-05-05 19:07 46.41053 6.36336 6494 ft 174 kts 225°
2026-05-05 19:07 46.40211 6.35088 6165 ft 169 kts 225°
2026-05-05 19:07 46.39405 6.33897 5763 ft 160 kts 225°
2026-05-05 19:08 46.38655 6.32787 5423 ft 153 kts 225°
2026-05-05 19:08 46.37932 6.31717 5123 ft 143 kts 225°
2026-05-05 19:08 46.37260 6.30724 4908 ft 133 kts 225°
2026-05-05 19:08 46.36620 6.29779 4708 ft 133 kts 225°
2026-05-05 19:09 46.35976 6.28827 4516 ft 131 kts 225°
2026-05-05 19:09 46.35337 6.27883 4323 ft 132 kts 225°
2026-05-05 19:09 46.34698 6.26939 4140 ft 131 kts 225°
2026-05-05 19:09 46.34063 6.26002 3955 ft 131 kts 225°
2026-05-05 19:10 46.33428 6.25064 3789 ft 130 kts 224°
2026-05-05 19:10 46.32793 6.24128 3607 ft 133 kts 224°
2026-05-05 19:10 46.32152 6.23180 3428 ft 130 kts 224°
2026-05-05 19:10 46.31519 6.22248 3255 ft 130 kts 224°
2026-05-05 19:11 46.30874 6.21302 3105 ft 132 kts 223°
2026-05-05 19:11 46.30255 6.20349 2957 ft 131 kts 225°
2026-05-05 19:11 46.29651 6.19409 2873 ft 123 kts 222°
2026-05-05 19:11 46.29040 6.18552 2668 ft 123 kts 222°
2026-05-05 19:12 46.28438 6.17662 2411 ft 124 kts 223°
2026-05-05 19:12 46.27830 6.16779 2176 ft 125 kts 224°
2026-05-05 19:12 46.27228 6.15884 1978 ft 124 kts 223°
2026-05-05 19:12 46.26623 6.15008 1843 ft 122 kts 223°
2026-05-05 19:13 46.26028 6.14141 1681 ft 123 kts 222°
2026-05-05 19:13 46.25427 6.13283 1533 ft 123 kts 224°
2026-05-05 19:13 46.24841 6.12416 1386 ft 123 kts 224°
2026-05-05 19:13 46.24291 6.11611 1369 ft 89 kts 225°
2026-05-05 19:14 46.23975 6.11147 1374 ft 48 kts 225°
2026-05-05 19:14 46.23868 6.11066 1379 ft 12 kts 181°
2026-05-05 19:14 46.23824 6.11071 1379 ft 2 kts 171°
2026-05-05 19:14 46.23795 6.11079 1377 ft 3 kts 169°
2026-05-05 19:15 46.23787 6.11081 1376 ft 0 kts 169°
2026-05-05 19:15 46.23774 6.11086 1378 ft 1 kts 165°
2026-05-05 19:16 46.23753 6.11090 1382 ft 4 kts 181°
2026-05-05 19:16 46.23714 6.11084 1386 ft 6 kts 197°
2026-05-05 19:16 46.23683 6.11047 1385 ft 7 kts 225°
2026-05-05 19:16 46.23642 6.10990 1389 ft 10 kts 224°
2026-05-05 19:17 46.23588 6.10908 1388 ft 13 kts 225°
2026-05-05 19:17 46.23559 6.10867 1390 ft 6 kts 225°
2026-05-05 19:17 46.23523 6.10815 1389 ft 9 kts 225°
2026-05-05 19:17 46.23474 6.10740 1391 ft 12 kts 225°
2026-05-05 19:18 46.23415 6.10655 1389 ft 12 kts 222°
2026-05-05 19:18 46.23373 6.10602 1393 ft 1 kts 224°
2026-05-05 19:18 46.23357 6.10580 1392 ft 5 kts 224°
2026-05-05 19:18 46.23324 6.10531 1399 ft 9 kts 226°
2026-05-05 19:19 46.23275 6.10457 1400 ft 12 kts 225°
2026-05-05 19:19 46.23210 6.10363 1400 ft 14 kts 225°
2026-05-05 19:19 46.23197 6.10344 1395 ft 5 kts 223°
2026-05-05 19:19 46.23159 6.10356 1397 ft 8 kts 139°
2026-05-05 19:20 46.23102 6.10440 1398 ft 12 kts 136°
2026-05-05 19:20 46.23047 6.10483 1395 ft 8 kts 198°
2026-05-05 19:20 46.23033 6.10461 1395 ft 4 kts 230°
2026-05-05 19:20 46.22998 6.10413 1395 ft 0 kts 224°
2026-05-05 19:21 46.22986 6.10402 1392 ft 4 kts 197°
2026-05-05 19:21 46.22954 6.10441 1392 ft 0 kts 133°
2026-05-05 19:21 46.22945 6.10454 1392 ft 1 kts 135°
2026-05-05 19:21 46.22944 6.10455 1392 ft 0 kts 135°